TimePDT,TemperatureF,Dew PointF,Humidity,Sea Level PressureIn,VisibilityMPH,Wind Direction,Wind SpeedMPH,Gust SpeedMPH,PrecipitationIn,Events,Conditions,WindDirDegrees,DateUTC
12:53 AM,64.0,42.1,45,29.77,10.0,West,9.2,-,N/A,,Clear,260,2013-03-23 07:53:00
1:53 AM,62.1,41.0,46,29.78,10.0,West,9.2,-,N/A,,Clear,270,2013-03-23 08:53:00
2:53 AM,60.1,39.0,46,29.79,10.0,WNW,9.2,-,N/A,,Clear,290,2013-03-23 09:53:00
3:53 AM,59.0,37.0,44,29.78,10.0,West,5.8,-,N/A,,Clear,280,2013-03-23 10:53:00
4:53 AM,57.9,37.0,46,29.80,10.0,WNW,5.8,-,N/A,,Clear,300,2013-03-23 11:53:00
5:53 AM,57.9,39.9,51,29.83,10.0,NNW,4.6,-,N/A,,Clear,330,2013-03-23 12:53:00
6:53 AM,57.9,43.0,58,29.87,10.0,NE,3.5,-,N/A,,Clear,50,2013-03-23 13:53:00
7:53 AM,57.0,46.9,69,29.91,10.0,East,3.5,-,N/A,,Clear,100,2013-03-23 14:53:00
8:53 AM,64.0,48.9,58,29.94,10.0,SE,5.8,-,N/A,,Clear,140,2013-03-23 15:53:00
9:53 AM,71.1,36.0,28,29.98,10.0,ENE,8.1,-,N/A,,Clear,70,2013-03-23 16:53:00
10:53 AM,75.0,18.0,12,29.99,10.0,NE,16.1,-,N/A,,Clear,40,2013-03-23 17:53:00
11:53 AM,77.0,9.0,7,29.99,10.0,NE,18.4,-,N/A,,Clear,50,2013-03-23 18:53:00
12:53 PM,78.1,10.9,8,29.97,10.0,East,11.5,-,N/A,,Clear,80,2013-03-23 19:53:00
1:53 PM,79.0,7.0,6,29.96,10.0,ENE,10.4,16.1,N/A,,Clear,60,2013-03-23 20:53:00
2:53 PM,79.0,8.1,7,29.94,10.0,East,6.9,-,N/A,,Clear,80,2013-03-23 21:53:00
3:53 PM,80.1,6.1,6,29.92,10.0,ENE,3.5,-,N/A,,Clear,60,2013-03-23 22:53:00
4:53 PM,80.1,7.0,6,29.91,10.0,ENE,8.1,-,N/A,,Clear,60,2013-03-23 23:53:00
5:53 PM,79.0,7.0,6,29.90,10.0,East,4.6,-,N/A,,Clear,80,2013-03-24 00:53:00
6:53 PM,77.0,5.0,6,29.91,10.0,Calm,Calm,-,N/A,,Clear,0,2013-03-24 01:53:00
7:53 PM,69.1,19.9,15,29.92,10.0,Calm,Calm,-,N/A,,Clear,0,2013-03-24 02:53:00
8:53 PM,71.1,10.9,10,29.93,10.0,East,6.9,-,N/A,,Clear,100,2013-03-24 03:53:00
9:53 PM,66.0,18.0,16,29.95,10.0,SE,3.5,-,N/A,,Clear,130,2013-03-24 04:53:00
10:53 PM,64.9,14.0,14,29.96,10.0,SE,3.5,-,N/A,,Clear,130,2013-03-24 05:53:00
11:53 PM,62.1,16.0,17,29.96,10.0,Calm,Calm,-,N/A,,Clear,0,2013-03-24 06:53:00